Lid_Strength_Index
2 3 4 4 6 6 7 7 6 6 6 6 6 6 6 6 6 6 6 6 5 5
3 4 4 5 6 6 6 7 6 6 7 7 7 7 7 8 7 7 7 6 6 6
4 4 5 5 6 7 7 7 8 7 7 7 7 7 7 7 7 8 7 7 7 6
4 5 5 6 6 7 7 7 8 8 7 8 8 8 8 8 8 8 8 7 7 6
6 5 6 7 7 7 8 8 8 8 8 8 8 8 8 9 8 8 8 6 6 6
6 6 6 7 8 8 8 8 8 8 9 8 8 8 8 8 8 7 7 6 6 5
6 7 7 9 8 8 8 8 8 8 8 9 8 8 8 8 8 7 6 6 5 4
7 8 9 8 8 8 8 8 8 9 9 9 8 8 8 7 7 7 5 5 5 4
9 10 9 8 7 8 8 9 9 9 9 9 9 8 8 6 6 5 4 4 3 3
10 9 7 8 8 9 10 10 9 9 10 10 9 9 9 6 6 6 6 6 5 5
10 7 8 8 9 10 10 10 10 9 9 9 8 9 8 7 6 7 7 7 7 7
7 7 8 8 9 10 10 10 10 10 10 10 9 10 9 8 6 6 6 6 7 6
7 6 7 7 7 8 8 10 10 10 10 9 10 10 11 9 8 8 8 7 8 8
6 6 7 7 7 8 7 8 8 8 8 8 9 9 11 10 9 9 9 9 9 8